Notices

What's New in latest Release from April 7th, 2021:

- Updated Glossary, including Speed of Maximum Gust, and Total Hourly Precipitation

- Updated national and regional climate services offices contacts and prices information

- Addition of station inventory lists for 1981-2010, 1971-2000, and 1961-1990 Normals.

If you haven't already, please take our survey and provide feedback about our website: https://eccc.sondage-survey.ca/f/LanguageSelection.aspx?s=442ca660-fcf1-47c0-95a9-59707d6fd709

Hourly Data Report for March 05, 2017

TORONTO CITY
ONTARIO

43°40'00.000" N
79°24'00.000" W
112.50 m
6158355
71508
XTO

Download Data

Hourly Data (March 2017)
Hourly Data Report for March 5, 2017
TIME
LST
Temp Definition
°C
Dew Point Definition
°C
Rel Hum Definition
%
Precip. Amount Definition
mm

Wind Dir Definition
10's deg

Wind Spd Definition
km/h
Visibility Definition
km
Stn Press Definition
kPa
Hmdx Definition


Wind Chill Definition


Weather Definition


00:00 -9.9 -18.9 48 0.0 LegendMM LegendMM   102.64     LegendNANA
01:00 -10.2 -19.1 48 0.0 LegendMM LegendMM   102.64     LegendNANA
02:00 -10.4 -19.2 48 0.0 LegendMM LegendMM   102.65     LegendNANA
03:00 -10.2 -18.9 49 0.0 LegendMM LegendMM   102.67     LegendNANA
04:00 -10.5 -18.9 50 0.0 LegendMM LegendMM   102.66     LegendNANA
05:00 -10.3 -17.6 55 0.0 LegendMM LegendMM   102.61     LegendNANA
06:00 -10.3 -16.3 61 0.0 LegendMM LegendMM   102.57     LegendNANA
07:00 -9.8 -14.5 69 0.0 LegendMM LegendMM   102.59     LegendNANA
08:00 -8.6 -13.1 70 0.0 LegendMM LegendMM   102.55     LegendNANA
09:00 -6.5 -12.2 64 0.0 LegendMM LegendMM   102.53     LegendNANA
10:00 -5.7 -10.3 70 0.0 LegendMM LegendMM   102.47     LegendNANA
11:00 -5.5 -9.6 73 0.0 LegendMM LegendMM   102.43     LegendNANA
12:00 -4.9 -10.7 64 0.0 LegendMM LegendMM   102.37     LegendNANA
13:00 -4.4 -10.0 65 0.0 LegendMM LegendMM   102.28     LegendNANA
14:00 -3.8 -9.5 65 0.0 LegendMM LegendMM   102.19     LegendNANA
15:00 -4.1 -10.2 62 0.0 LegendMM LegendMM   102.10     LegendNANA
16:00 -3.9 -9.9 63 0.0 LegendMM LegendMM   102.01     LegendNANA
17:00 -3.6 -9.6 63 0.0 LegendMM LegendMM   101.92     LegendNANA
18:00 -3.2 -8.6 66 0.0 LegendMM LegendMM   101.85     LegendNANA
19:00 -2.6 -8.1 66 0.0 LegendMM LegendMM   101.76     LegendNANA
20:00 -1.9 -7.1 67 0.0 LegendMM LegendMM   101.69     LegendNANA
21:00 -1.3 -6.6 67 0.0 LegendMM LegendMM   101.63     LegendNANA
22:00 -1.1 -7.0 64 0.0 LegendMM LegendMM   101.55     LegendNANA
23:00 -0.7 -7.4 60 0.0 LegendMM LegendMM   101.49     LegendNANA

Notes on Data Quality.

Legend

  • E = Estimated
  • M = Missing
  • NA = Not Available*
  • [empty] = Indicates an unobserved value
Date modified: